timestamp,wind_dir_avg,wind_spd_avg,wind_spd_max_dir,wind_spd_gust,battery_voltage,lat,long
2020-11-24 00:04:01+00:00,173.0,8.17,177.0,8.62,12.57,47.59359,-54.27349
2020-11-24 00:14:01+00:00,175.0,7.55,176.0,8.28,12.57,47.59359,-54.27349
2020-11-24 00:24:01+00:00,171.0,7.68,169.0,8.55,12.57,47.59359,-54.27349
2020-11-24 00:34:01+00:00,177.0,7.0,172.0,8.03,12.57,47.59359,-54.27349
2020-11-24 00:44:01+00:00,170.0,7.38,175.0,8.17,12.57,47.59359,-54.27349
2020-11-24 00:54:01+00:00,169.0,7.21,166.0,7.72,12.57,47.59359,-54.27349
2020-11-24 01:04:01+00:00,177.0,7.62,179.0,8.42,12.57,47.59359,-54.27349
2020-11-24 01:14:01+00:00,173.0,7.73,171.0,8.76,12.57,47.59359,-54.27349
2020-11-24 01:24:01+00:00,176.0,7.27,180.0,8.58,12.57,47.59359,-54.27349
2020-11-24 01:34:01+00:00,166.0,7.19,170.0,7.99,12.57,47.59359,-54.27349
2020-11-24 01:44:01+00:00,172.0,7.06,169.0,7.93,12.57,47.59359,-54.27349
2020-11-24 01:54:01+00:00,170.0,7.12,166.0,8.11,12.57,47.59359,-54.27349
2020-11-24 02:04:01+00:00,170.0,6.65,176.0,7.51,12.57,47.59359,-54.27349
2020-11-24 02:14:01+00:00,182.0,7.42,181.0,8.43,12.57,47.59359,-54.27349
2020-11-24 02:24:01+00:00,189.0,12.59,185.0,15.53,12.57,47.59359,-54.27349
2020-11-24 02:34:01+00:00,181.0,12.42,176.0,13.59,12.57,47.59359,-54.27349
2020-11-24 02:44:01+00:00,187.0,12.88,182.0,15.44,12.57,47.59359,-54.27349
2020-11-24 02:54:01+00:00,182.0,11.14,179.0,13.06,12.57,47.59359,-54.27349
2020-11-24 03:04:01+00:00,183.0,11.87,187.0,14.35,12.57,47.59359,-54.27349
2020-11-24 03:14:01+00:00,183.0,14.66,182.0,17.83,12.49,47.59359,-54.27349
2020-11-24 03:24:01+00:00,179.0,13.01,182.0,15.25,12.49,47.59359,-54.27349
2020-11-24 03:34:01+00:00,173.0,15.8,167.0,18.4,12.49,47.59359,-54.27349
2020-11-24 03:44:01+00:00,175.0,14.88,175.0,17.88,12.49,47.59359,-54.27349
2020-11-24 03:54:01+00:00,178.0,14.35,178.0,16.95,12.49,47.59359,-54.27349
2020-11-24 04:04:01+00:00,181.0,14.8,179.0,17.97,12.49,47.59359,-54.27349
2020-11-24 04:14:01+00:00,183.0,13.28,179.0,15.34,12.57,47.59359,-54.27349
2020-11-24 04:24:01+00:00,180.0,13.07,176.0,16.06,12.57,47.59359,-54.27349
2020-11-24 04:34:01+00:00,178.0,12.82,184.0,15.48,12.57,47.59359,-54.27349
2020-11-24 04:44:01+00:00,182.0,13.89,182.0,16.41,12.57,47.59359,-54.27349
2020-11-24 04:54:01+00:00,178.0,12.13,181.0,13.77,12.57,47.59359,-54.27349
2020-11-24 05:04:01+00:00,181.0,14.59,183.0,17.65,12.57,47.59359,-54.27349
2020-11-24 05:14:01+00:00,183.0,14.26,191.0,16.97,12.49,47.59359,-54.27349
2020-11-24 05:24:01+00:00,177.0,13.72,174.0,17.54,12.49,47.59359,-54.27349
2020-11-24 05:34:01+00:00,174.0,10.68,177.0,11.81,12.49,47.59359,-54.27349
2020-11-24 05:44:01+00:00,177.0,14.74,179.0,17.17,12.49,47.59359,-54.27349
2020-11-24 05:54:01+00:00,180.0,12.18,188.0,14.9,12.49,47.59359,-54.27349
2020-11-24 06:04:01+00:00,177.0,11.74,163.0,15.07,12.49,47.59359,-54.27349
2020-11-24 06:14:01+00:00,179.0,16.11,178.0,18.89,12.49,47.59359,-54.27349
2020-11-24 06:24:01+00:00,170.0,14.11,167.0,17.73,12.49,47.59359,-54.27349
2020-11-24 06:34:01+00:00,172.0,13.95,169.0,16.86,12.49,47.59359,-54.27349
2020-11-24 06:44:01+00:00,173.0,14.53,173.0,16.38,12.49,47.59359,-54.27349
2020-11-24 06:54:01+00:00,172.0,14.74,176.0,17.1,12.49,47.59359,-54.27349
2020-11-24 07:04:01+00:00,171.0,15.28,173.0,17.92,12.49,47.59359,-54.27349
2020-11-24 07:14:01+00:00,167.0,17.08,169.0,20.02,12.41,47.59359,-54.27349
2020-11-24 07:24:01+00:00,172.0,17.34,174.0,20.17,12.41,47.59359,-54.27349
2020-11-24 07:34:01+00:00,170.0,14.79,169.0,17.8,12.41,47.59359,-54.27349
2020-11-24 07:44:01+00:00,168.0,17.83,171.0,19.83,12.41,47.59359,-54.27349
2020-11-24 07:54:01+00:00,170.0,13.53,171.0,15.17,12.41,47.59359,-54.27349
2020-11-24 08:04:01+00:00,165.0,11.28,151.0,13.57,12.41,47.59359,-54.27349
2020-11-24 08:14:01+00:00,166.0,11.78,164.0,15.04,12.41,47.59359,-54.27349
2020-11-24 08:24:01+00:00,166.0,13.81,167.0,15.9,12.41,47.59359,-54.27349
2020-11-24 08:34:01+00:00,164.0,14.78,162.0,17.34,12.41,47.59359,-54.27349
2020-11-24 08:44:01+00:00,161.0,16.06,162.0,19.9,12.41,47.59359,-54.27349
2020-11-24 08:54:01+00:00,163.0,15.8,162.0,17.97,12.41,47.59359,-54.27349
2020-11-24 09:04:01+00:00,161.0,16.66,151.0,19.22,12.41,47.59359,-54.27349
2020-11-24 09:14:01+00:00,160.0,17.22,160.0,21.93,12.49,47.59359,-54.27349
2020-11-24 09:24:01+00:00,159.0,17.43,155.0,21.75,12.49,47.59359,-54.27349
2020-11-24 09:34:01+00:00,161.0,18.09,153.0,20.45,12.49,47.59359,-54.27349
2020-11-24 09:44:01+00:00,163.0,18.98,165.0,23.68,12.49,47.59359,-54.27349
2020-11-24 09:54:01+00:00,161.0,19.64,153.0,24.19,12.49,47.59359,-54.27349
2020-11-24 10:04:01+00:00,164.0,19.36,164.0,23.76,12.49,47.59359,-54.27349
2020-11-24 10:14:01+00:00,164.0,17.48,173.0,21.53,12.41,47.59359,-54.27349
2020-11-24 10:24:01+00:00,164.0,20.12,164.0,24.3,12.41,47.59359,-54.27349
2020-11-24 10:34:01+00:00,167.0,18.84,162.0,22.22,12.41,47.59359,-54.27349
2020-11-24 10:44:01+00:00,163.0,19.34,154.0,25.18,12.41,47.59359,-54.27349
2020-11-24 10:54:01+00:00,164.0,18.02,168.0,21.41,12.41,47.59359,-54.27349
2020-11-24 11:04:01+00:00,165.0,15.45,163.0,17.81,12.41,47.59359,-54.27349
2020-11-24 11:14:01+00:00,161.0,15.71,163.0,18.23,12.41,47.59359,-54.27349
2020-11-24 11:24:01+00:00,167.0,18.53,171.0,22.56,12.41,47.59359,-54.27349
2020-11-24 11:34:01+00:00,163.0,17.42,159.0,21.32,12.41,47.59359,-54.27349
2020-11-24 11:44:01+00:00,168.0,18.77,158.0,23.0,12.41,47.59359,-54.27349
2020-11-24 11:54:01+00:00,169.0,18.7,172.0,21.7,12.41,47.59359,-54.27349
2020-11-24 12:04:01+00:00,170.0,20.13,177.0,25.59,12.41,47.59359,-54.27349
2020-11-24 12:14:01+00:00,163.0,21.92,154.0,26.8,12.41,47.59359,-54.27349
2020-11-24 12:24:01+00:00,165.0,21.11,163.0,25.05,12.41,47.59359,-54.27349
2020-11-24 12:34:01+00:00,165.0,21.33,159.0,26.04,12.41,47.59359,-54.27349
2020-11-24 12:44:01+00:00,166.0,20.25,166.0,24.33,12.41,47.59359,-54.27349
2020-11-24 12:54:01+00:00,169.0,22.89,172.0,27.54,12.41,47.59359,-54.27349
2020-11-24 13:04:01+00:00,166.0,21.68,172.0,26.84,12.41,47.59359,-54.27349
2020-11-24 13:14:01+00:00,168.0,21.94,163.0,25.72,12.41,47.59359,-54.27349
2020-11-24 13:24:01+00:00,174.0,25.13,175.0,29.7,12.41,47.59359,-54.27349
2020-11-24 13:34:01+00:00,177.0,23.47,181.0,28.6,12.41,47.59359,-54.27349
2020-11-24 13:44:01+00:00,173.0,22.6,166.0,26.6,12.41,47.59359,-54.27349
2020-11-24 13:54:01+00:00,178.0,21.19,173.0,25.07,12.41,47.59359,-54.27349
2020-11-24 14:04:01+00:00,181.0,23.23,185.0,30.58,12.41,47.59359,-54.27349
2020-11-24 14:14:01+00:00,182.0,25.46,184.0,31.13,12.49,47.59359,-54.27349
2020-11-24 14:24:01+00:00,178.0,26.87,175.0,35.07,12.49,47.59359,-54.27349
2020-11-24 14:34:01+00:00,182.0,25.07,181.0,32.87,12.49,47.59359,-54.27349
2020-11-24 14:44:01+00:00,182.0,23.94,183.0,29.26,12.49,47.59359,-54.27349
2020-11-24 14:54:01+00:00,188.0,22.03,194.0,27.15,12.49,47.59359,-54.27349
2020-11-24 15:04:01+00:00,184.0,25.13,180.0,30.73,12.49,47.59359,-54.27349
2020-11-24 15:14:01+00:00,186.0,23.24,185.0,27.83,12.49,47.59359,-54.27349
2020-11-24 15:24:01+00:00,183.0,23.91,185.0,29.15,12.49,47.59359,-54.27349
2020-11-24 15:34:01+00:00,186.0,22.68,195.0,27.13,12.49,47.59359,-54.27349
2020-11-24 15:44:01+00:00,188.0,22.5,185.0,32.31,12.49,47.59359,-54.27349
2020-11-24 15:54:01+00:00,198.0,22.26,199.0,26.53,12.49,47.59359,-54.27349
2020-11-24 16:04:01+00:00,199.0,22.23,196.0,25.83,12.49,47.59359,-54.27349
2020-11-24 16:14:01+00:00,212.0,18.0,211.0,22.52,12.57,47.59359,-54.27349
2020-11-24 16:24:01+00:00,209.0,17.79,203.0,22.92,12.57,47.59359,-54.27349
2020-11-24 16:34:01+00:00,215.0,16.17,215.0,18.32,12.57,47.59359,-54.27349
2020-11-24 16:44:01+00:00,216.0,15.33,221.0,16.9,12.57,47.59359,-54.27349
2020-11-24 16:54:01+00:00,218.0,12.41,219.0,14.38,12.57,47.59359,-54.27349
2020-11-24 17:04:01+00:00,234.0,12.43,235.0,14.6,12.57,47.59359,-54.27349
2020-11-24 17:14:01+00:00,249.0,12.42,246.0,13.74,12.73,47.59359,-54.27349
2020-11-24 17:24:01+00:00,245.0,11.56,252.0,13.3,12.73,47.59359,-54.27349
2020-11-24 17:34:01+00:00,249.0,9.31,252.0,10.54,12.73,47.59359,-54.27349
2020-11-24 17:44:01+00:00,260.0,11.58,262.0,13.48,12.73,47.59359,-54.27349
2020-11-24 17:54:01+00:00,258.0,13.42,253.0,15.46,12.73,47.59359,-54.27349
2020-11-24 18:04:01+00:00,254.0,11.99,255.0,14.66,12.73,47.59359,-54.27349
2020-11-24 18:14:01+00:00,258.0,12.33,262.0,14.19,13.05,47.59359,-54.27349
2020-11-24 18:24:01+00:00,249.0,15.46,255.0,18.12,13.05,47.59359,-54.27349
2020-11-24 18:34:01+00:00,257.0,13.05,255.0,15.65,13.05,47.59359,-54.27349
2020-11-24 18:44:01+00:00,252.0,15.02,255.0,18.0,13.05,47.59359,-54.27349
2020-11-24 18:54:01+00:00,250.0,12.51,260.0,15.55,13.05,47.59359,-54.27349
2020-11-24 19:04:01+00:00,250.0,14.29,254.0,16.74,13.05,47.59359,-54.27349
2020-11-24 19:14:01+00:00,248.0,14.96,252.0,16.54,12.81,47.59359,-54.27349
2020-11-24 19:24:01+00:00,253.0,12.24,256.0,14.6,12.81,47.59359,-54.27349
2020-11-24 19:34:01+00:00,258.0,14.86,264.0,17.35,12.81,47.59359,-54.27349
2020-11-24 19:44:01+00:00,253.0,15.8,253.0,18.41,12.81,47.59359,-54.27349
2020-11-24 19:54:01+00:00,255.0,16.92,257.0,20.1,12.81,47.59359,-54.27349
2020-11-24 20:04:01+00:00,255.0,15.51,257.0,20.99,12.81,47.59359,-54.27349
2020-11-24 20:14:01+00:00,243.0,12.51,238.0,15.3,12.57,47.59359,-54.27349
2020-11-24 20:24:01+00:00,252.0,17.45,262.0,20.99,12.57,47.59359,-54.27349
2020-11-24 20:34:01+00:00,255.0,14.56,254.0,16.8,12.57,47.59359,-54.27349
2020-11-24 20:44:01+00:00,252.0,15.74,247.0,17.46,12.57,47.59359,-54.27349
2020-11-24 20:54:01+00:00,250.0,15.18,247.0,18.91,12.57,47.59359,-54.27349
2020-11-24 21:04:01+00:00,257.0,14.3,259.0,16.57,12.57,47.59359,-54.27349
2020-11-24 21:14:01+00:00,253.0,14.28,257.0,15.75,12.49,47.59359,-54.27349
2020-11-24 21:24:01+00:00,252.0,13.67,251.0,16.17,12.49,47.59359,-54.27349
2020-11-24 21:34:01+00:00,252.0,15.8,253.0,17.72,12.49,47.59359,-54.27349
2020-11-24 21:44:01+00:00,257.0,14.7,260.0,20.83,12.49,47.59359,-54.27349
2020-11-24 21:54:01+00:00,258.0,15.24,256.0,18.52,12.49,47.59359,-54.27349
2020-11-24 22:04:01+00:00,250.0,15.01,243.0,17.28,12.49,47.59359,-54.27349
2020-11-24 22:14:01+00:00,259.0,16.77,264.0,21.0,12.41,47.59359,-54.27349
2020-11-24 22:24:01+00:00,256.0,14.58,251.0,17.7,12.41,47.59359,-54.27349
2020-11-24 22:34:01+00:00,257.0,17.28,260.0,20.36,12.41,47.59359,-54.27349
2020-11-24 22:44:01+00:00,253.0,14.98,254.0,17.31,12.41,47.59359,-54.27349
2020-11-24 22:54:01+00:00,261.0,15.85,258.0,17.71,12.41,47.59359,-54.27349
2020-11-24 23:04:01+00:00,265.0,18.17,263.0,21.5,12.41,47.59359,-54.27349
2020-11-24 23:14:01+00:00,259.0,17.0,262.0,22.32,12.41,47.59359,-54.27349
2020-11-24 23:24:01+00:00,254.0,18.67,260.0,25.93,12.41,47.59359,-54.27349
2020-11-24 23:34:01+00:00,252.0,17.09,250.0,23.32,12.41,47.59359,-54.27349
2020-11-24 23:44:01+00:00,257.0,17.62,260.0,22.34,12.41,47.59359,-54.27349
2020-11-24 23:54:01+00:00,259.0,15.84,262.0,17.46,12.41,47.59359,-54.27349
